太空蜂星座-123星 (SPACEBEE-123)

导读

SPACEBEE-123是一颗由美国发射的卫星,于协调世界时2022年3月15日8时成功进入太空,作为美国商业航天星座布局中的组成部分,延续了SpaceBee系列卫星面向物联网低速率通信服务的设计定位,为全球范围内的设备连接、偏远地区数据传输提供天基支持,服务于环境监测、物流跟踪等多领域应用场景,进一步扩充了美国低轨卫星通信网络的覆盖能力与服务容量。

基本信息
目录编号:
52027
目录名称:
SPACEBEE-123
国际标识:
2022-026V
轨道中心:
EARTH
卫星名称:
太空蜂星座-123星
卫星全名:
太空蜂星座-123星 (SPACEBEE-123)
卫星状态:
已陨落 最后检测时间 2024-03-12
发射日期:
2022-03-15 UTC
国别 :
美国 (US)
星等 :
--
轨道信息
数据来源 国际轨道数据
星历时间: 2024-03-08T09:36:08+0800
轨道信息已过期858天
半长轴: 6530.369km
偏心率: 0.0010278
轨道倾角: 97.461°
近地点辐角 242.926°
升交点赤经 87.357°
平近点角 117.099°
近地点: 145.522km
远地点: 158.946km
周期: 87.532分钟
每日圈数: 16.45115
详细信息
平衡模式:
三轴稳定
覆盖范围:
全球
运营商:
蜂群科技公司
运营商所在国:
美国
制造商(研发单位):
蜂群科技公司
制造商所在国:
美国
使用方式:
暂无
卫星简介
太空蜜蜂(SpaceBEE)皮卫星建立在0.25U立方体卫星平台上,是私营公司蜂群科技公司(Swarm Technologies)开发的卫星星座的一部分。该星座计划由大约150颗皮卫星组成,提供双向卫星通信和数据中继。该卫星已陨落。